• In Netherlands
  • List of Countries
  • For 7 days
  • Water Temperature
  • Satellite Maps
  • Weather Map
  • Weather Widgets
  • user-avatar
    Login

    Hourly Weather Sarafovo

    Today, 30 April, Sunday

    Time Temperature Precipitation Wind Pressure Humidity
    00:00 +14°C° 0 mm 2 mps 755 mmHg 75%
    01:00 +13°C° 0 mm 2 mps 755 mmHg 76%
    02:00 +13°C° 0 mm 1 mps 755 mmHg 77%
    03:00 +13°C° 0 mm 1 mps 755 mmHg 78%
    04:00 +13°C° 0 mm 1 mps 756 mmHg 79%
    05:00 +13°C° 0 mm 1 mps 756 mmHg 79%
    06:00 +15°C° 0 mm 2 mps 756 mmHg 78%
    07:00 +16°C° 0 mm 2 mps 756 mmHg 76%
    08:00 +18°C° 0 mm 3 mps 756 mmHg 74%
    09:00 +19°C° 0 mm 3 mps 756 mmHg 72%
    10:00 +20°C° 0 mm 3 mps 757 mmHg 71%
    11:00 +21°C° 0 mm 4 mps 757 mmHg 70%
    12:00 +21°C° 0 mm 4 mps 757 mmHg 69%
    13:00 +21°C° 0 mm 4 mps 757 mmHg 68%
    14:00 +22°C° 0 mm 4 mps 756 mmHg 67%
    15:00 +21°C° 0 mm 4 mps 756 mmHg 68%
    16:00 +21°C° 0 mm 4 mps 756 mmHg 69%
    17:00 +20°C° 0 mm 4 mps 756 mmHg 70%
    18:00 +18°C° 0 mm 3 mps 756 mmHg 74%
    19:00 +16°C° 0 mm 3 mps 756 mmHg 78%
    20:00 +14°C° 0 mm 2 mps 757 mmHg 82%
    21:00 +13°C° 0 mm 2 mps 757 mmHg 82%
    22:00 +12°C° 0 mm 2 mps 757 mmHg 81%
    23:00 +10°C° 0 mm 2 mps 757 mmHg 81%

    Tomorrow, 1 May, Monday

    Time Temperature Precipitation Wind Pressure Humidity
    00:00 +10°C° 0 mm 2 mps 757 mmHg 81%
    01:00 +9°C° 0 mm 3 mps 757 mmHg 81%
    02:00 +9°C° 0 mm 3 mps 757 mmHg 81%
    03:00 +9°C° 0 mm 3 mps 757 mmHg 82%
    04:00 +9°C° 0 mm 3 mps 757 mmHg 82%
    05:00 +8°C° 0 mm 3 mps 757 mmHg 83%
    06:00 +10°C° 0 mm 3 mps 757 mmHg 78%
    07:00 +12°C° 0 mm 4 mps 758 mmHg 73%
    08:00 +14°C° 0 mm 4 mps 758 mmHg 68%
    09:00 +15°C° 0 mm 4 mps 758 mmHg 65%
    10:00 +17°C° 0 mm 5 mps 758 mmHg 62%
    11:00 +19°C° 0 mm 5 mps 758 mmHg 59%
    12:00 +20°C° 0 mm 5 mps 758 mmHg 58%
    13:00 +20°C° 0 mm 5 mps 758 mmHg 57%
    14:00 +21°C° 0 mm 5 mps 758 mmHg 56%
    15:00 +20°C° 0 mm 5 mps 758 mmHg 58%
    16:00 +20°C° 0 mm 4 mps 758 mmHg 61%
    17:00 +19°C° 0 mm 4 mps 758 mmHg 63%
    18:00 +17°C° 0 mm 4 mps 758 mmHg 71%
    19:00 +13°C° 0 mm 3 mps 758 mmHg 79%
    20:00 +12°C° 0 mm 2 mps 758 mmHg 87%
    21:00 +10°C° 0 mm 2 mps 759 mmHg 87%
    22:00 +10°C° 0 mm 2 mps 759 mmHg 88%
    23:00 +9°C° 0 mm 2 mps 759 mmHg 89%

    Day after tomorrow, 2 May, Tuesday

    Time Temperature Precipitation Wind Pressure Humidity
    00:00 +9°C° 0 mm 2 mps 759 mmHg 89%
    01:00 +9°C° 0 mm 2 mps 759 mmHg 88%
    02:00 +9°C° 0 mm 2 mps 759 mmHg 88%
    03:00 +9°C° 0 mm 2 mps 759 mmHg 87%
    04:00 +9°C° 0 mm 2 mps 759 mmHg 87%
    05:00 +8°C° 0 mm 2 mps 759 mmHg 86%
    06:00 +12°C° 0 mm 2 mps 759 mmHg 79%
    07:00 +15°C° 0 mm 2 mps 760 mmHg 71%
    08:00 +17°C° 0 mm 2 mps 760 mmHg 63%
    09:00 +19°C° 0 mm 3 mps 760 mmHg 60%
    10:00 +20°C° 0 mm 3 mps 760 mmHg 56%
    11:00 +21°C° 0 mm 3 mps 760 mmHg 53%
    12:00 +22°C° 0 mm 4 mps 760 mmHg 53%
    13:00 +22°C° 0 mm 4 mps 760 mmHg 54%
    14:00 +22°C° 0 mm 4 mps 760 mmHg 54%
    15:00 +22°C° 0 mm 4 mps 760 mmHg 58%
    16:00 +21°C° 0 mm 3 mps 759 mmHg 61%
    17:00 +20°C° 0 mm 3 mps 759 mmHg 64%
    18:00 +18°C° 0 mm 3 mps 760 mmHg 72%
    19:00 +15°C° 0 mm 2 mps 760 mmHg 80%
    20:00 +12°C° 0 mm 2 mps 760 mmHg 87%
    21:00 +12°C° 0 mm 2 mps 760 mmHg 88%
    22:00 +11°C° 0 mm 1 mps 760 mmHg 89%
    23:00 +10°C° 0 mm 1 mps 761 mmHg 89%

    3 May, Wednesday

    Time Temperature Precipitation Wind Pressure Humidity
    00:00 +10°C° 0 mm 1 mps 760 mmHg 89%
    01:00 +10°C° 0 mm 1 mps 760 mmHg 90%
    02:00 +9°C° 0 mm 1 mps 760 mmHg 90%
    03:00 +9°C° 0 mm 1 mps 760 mmHg 90%
    04:00 +9°C° 0 mm 1 mps 760 mmHg 89%
    05:00 +9°C° 0 mm 1 mps 760 mmHg 89%
    06:00 +12°C° 0 mm 1 mps 760 mmHg 82%
    07:00 +15°C° 0 mm 1 mps 760 mmHg 76%
    08:00 +19°C° 0 mm 1 mps 760 mmHg 69%
    09:00 +19°C° 0 mm 2 mps 760 mmHg 65%
    10:00 +20°C° 0 mm 2 mps 760 mmHg 61%
    11:00 +23°C° 0 mm 2 mps 761 mmHg 57%
    12:00 +22°C° 0 mm 3 mps 760 mmHg 56%
    13:00 +24°C° 0 mm 3 mps 760 mmHg 56%
    14:00 +24°C° 0 mm 3 mps 760 mmHg 56%
    15:00 +23°C° 0 mm 4 mps 760 mmHg 60%
    16:00 +22°C° 0 mm 4 mps 759 mmHg 64%
    17:00 +21°C° 0 mm 4 mps 759 mmHg 68%
    18:00 +18°C° 0 mm 3 mps 759 mmHg 76%
    19:00 +16°C° 0 mm 3 mps 760 mmHg 83%
    20:00 +13°C° 0 mm 2 mps 760 mmHg 91%
    21:00 +13°C° 0 mm 2 mps 760 mmHg 91%
    22:00 +12°C° 0 mm 2 mps 760 mmHg 92%
    23:00 +10°C° 0 mm 2 mps 760 mmHg 93%

    4 May, Thursday

    Time Temperature Precipitation Wind Pressure Humidity
    00:00 +11°C° 0 mm 1 mps 760 mmHg 93%
    01:00 +10°C° 0 mm 1 mps 759 mmHg 93%
    02:00 +10°C° 0 mm 1 mps 759 mmHg 93%
    03:00 +10°C° 0 mm 1 mps 759 mmHg 93%
    04:00 +10°C° 0 mm 1 mps 759 mmHg 93%
    05:00 +9°C° 0 mm 1 mps 759 mmHg 94%
    06:00 +12°C° 0 mm 1 mps 759 mmHg 87%
    07:00 +14°C° 0 mm 1 mps 759 mmHg 81%
    08:00 +18°C° 0 mm 1 mps 759 mmHg 75%
    09:00 +18°C° 0 mm 2 mps 759 mmHg 70%
    10:00 +20°C° 0 mm 2 mps 759 mmHg 64%
    11:00 +21°C° 0 mm 2 mps 759 mmHg 58%
    12:00 +22°C° 0 mm 3 mps 758 mmHg 57%
    13:00 +22°C° 0 mm 3 mps 758 mmHg 55%
    14:00 +24°C° 0 mm 3 mps 758 mmHg 53%
    15:00 +22°C° 0 mm 3 mps 758 mmHg 56%
    16:00 +21°C° 0 mm 3 mps 758 mmHg 60%
    17:00 +21°C° 0 mm 3 mps 758 mmHg 64%
    18:00 +18°C° 0 mm 3 mps 758 mmHg 72%
    19:00 +16°C° 0 mm 2 mps 758 mmHg 79%
    20:00 +13°C° 0 mm 2 mps 758 mmHg 87%
    21:00 +12°C° 0 mm 2 mps 758 mmHg 87%
    22:00 +12°C° 0 mm 1 mps 758 mmHg 87%
    23:00 +11°C° 0 mm 1 mps 758 mmHg 87%

    5 May, Friday

    Time Temperature Precipitation Wind Pressure Humidity
    00:00 +10°C° 0 mm 1 mps 758 mmHg 88%
    01:00 +10°C° 0 mm 1 mps 758 mmHg 88%
    02:00 +10°C° 0 mm 1 mps 757 mmHg 88%
    03:00 +9°C° 0 mm 1 mps 757 mmHg 88%
    04:00 +9°C° 0 mm 1 mps 757 mmHg 88%
    05:00 +9°C° 0 mm 1 mps 757 mmHg 89%
    06:00 +12°C° 0 mm 1 mps 757 mmHg 82%
    07:00 +15°C° 0 mm 1 mps 757 mmHg 76%
    08:00 +18°C° 0 mm 1 mps 757 mmHg 70%
    09:00 +19°C° 0 mm 2 mps 757 mmHg 67%
    10:00 +20°C° 0 mm 2 mps 756 mmHg 64%
    11:00 +21°C° 0 mm 3 mps 756 mmHg 61%
    12:00 +22°C° 0 mm 3 mps 756 mmHg 61%
    13:00 +22°C° 0 mm 3 mps 755 mmHg 60%
    14:00 +22°C° 0 mm 4 mps 755 mmHg 60%
    15:00 +22°C° 0 mm 4 mps 754 mmHg 64%
    16:00 +21°C° 0 mm 4 mps 754 mmHg 67%
    17:00 +20°C° 0 mm 4 mps 754 mmHg 70%
    18:00 +18°C° 0.3 mm 3 mps 754 mmHg 78%
    19:00 +16°C° 0.3 mm 3 mps 754 mmHg 86%
    20:00 +13°C° 0.3 mm 2 mps 754 mmHg 93%
    21:00 +13°C° 0.5 mm 2 mps 754 mmHg 94%
    22:00 +12°C° 0.5 mm 2 mps 754 mmHg 94%
    23:00 +12°C° 0.5 mm 1 mps 754 mmHg 94%
    Show more